Regional Weather Roundup
Issued by NWS Bismarck, ND

Home | Current Version | Previous Version | Text Only | Print | Product List | Glossary On
Versions: 1 2 3 4 5 6 7 8 9 10 11 12 13 14 15 16 17 18 19 20 21 22 23 24 25 26 27 28 29 30 31 32 33 34 35 36 37 38 39 40 41 42 43 44 45 46 47 48 49 50
000
ASUS43 KBIS 272010
RWRBIS

NWR BROADCAST TEXT
NATIONAL WEATHER SERVICE BISMARCK ND
200 PM CST FRI FEB 27 2015

NOTE: "FAIR" INDICATES FEW OR NO CLOUDS BELOW 12,000 FEET WITH NO
SIGNIFICANT WEATHER AND/OR OBSTRUCTIONS TO VISIBILITY.


CITY           SKY/WX    TMP DP  RH WIND       PRES   REMARKS
WILLISTON      SUNNY     22   5  48 S8        30.12F WCI  12
MINOT          SUNNY     14   0  53 S16       30.21  WCI  -2
MINOT AFB      SUNNY     14   2  59 S12       30.21F WCI   0
BISMARCK       SUNNY     18   2  49 S12       30.28  WCI   5
DICKINSON      SUNNY     24   7  48 S17G24    30.08  WCI  11
GARRISON         N/A     18   3  52 S14       30.20F WCI   4
HETTINGER ARPT SUNNY     23   4  44 S16       30.11  WCI  10
JAMESTOWN      SUNNY     14   0  53 SW9       30.34F WCI   2
BEACH          FAIR      23   3  42 S21       30.05F WCI   8
CARRINGTON     FAIR      10   1  67 MISG      30.33F
CROSBY         FAIR      16   1  53 S10       30.15F WCI   3
HARVEY         FAIR      12   1  62 SW14      30.28F WCI  -3
HAZEN          FAIR      19   0  42 S15G21    30.23F WCI   5
LINTON         FAIR      16   3  57 S16       30.29F WCI   0
MANDAN         FAIR      18   1  49 S15       30.25F WCI   3
OAKES            N/A     14   3  62 S13       30.40F WCI   0
RUGBY          FAIR      10   1  67 SW12      30.27F WCI  -4
WATFORD CITY   FAIR      21   5  49 S16       30.09F WCI   7
$$

CITY           SKY/WX    TMP DP  RH WIND       PRES   REMARKS
GRAND FORKS    MOSUNNY   17   3  54 SW9       30.40  WCI   6
GRAND FORKS AF SUNNY     18   0  45 W9        30.39F WCI   7
DEVILS LAKE    SUNNY     12   1  62 SW9       30.32F WCI   0
FARGO          SUNNY     15   2  56 SW16      30.44  WCI  -1
CANDO          FAIR      14   3  62 SW12      30.29F WCI   0
CAVALIER       FAIR      14   1  57 SW12      30.36F WCI   0
GWINNER        CLEAR     16   1  53 SW13      30.42F WCI   2
ROLLA          FAIR       7   0  72 SW13      30.24F WCI  -9
WALHALLA         N/A     12   0  57 W12       30.34F WCI  -2
$$

CITY           SKY/WX    TMP DP  RH WIND       PRES   REMARKS
ABERDEEN       SUNNY     14   1  56 S10       30.42  WCI   1
MOBRIDGE       SUNNY     19   4  51 S12       30.27  WCI   7
BUFFALO          N/A     25  12  58 S14G21    29.97  WCI  13
RAPID CITY     PTSUNNY   22  11  62 S22G32    30.07  WCI   6
GLASGOW        MOSUNNY   19   4  51 S9        30.03  WCI   8
SIDNEY         SUNNY     27   3  36 S17       30.11F WCI  14
WOLF POINT     SUNNY     26   7  44 S7        30.06  WCI  18
GLENDIVE       SUNNY     27   9  46 S17       30.05F WCI  14
MILES CITY     SUNNY     21   8  57 S8        30.01  WCI  11
BAKER          SUNNY     23   8  52 SE17      30.04F WCI   9
$$

CITY           SKY/WX    TMP DP  RH WIND       PRES   REMARKS
BILLINGS       PTSUNNY   22   8  55 S7        29.92  WCI  13
GREAT FALLS    FLURRIES  16  11  80 N9        30.01S WCI   4
REGINA         CLOUDY     3  -6  66 SE9       30.11F WCI -11
ESTEVAN        PTSUNNY   14   1  57 S6        30.15F WCI   5
$$



USA.gov is the U.S. government's official web portal to all federal, state and local government web resources and services.